THOR ABLESTAR DEB, 357

Orbit data source: Space-Track

THOR ABLESTAR DEB, 357 is space debris in LEO originally from a launch on Thu, 29 Jun 1961 UTC launched from the Air Force Eastern Test Range (AFETR). Debris objects in space refer to the collection of defunct objects orbiting the Earth. Examples of debris include non-operational satellites, rocket bodies, and fragments generated from explosions, collisions, or faulty payload assembly.

Loading next visibility...
Identifier
357, 1961-015DX
Orbit
LEO
Country
Flag of USUS
Related business
Manufacturer
Unknown
Mission
Spacecraft
Bus & Motor
Unknown
Mass
Unknown
Launch date (UTC)
1961-06-29 (65 years ago)
Launch vehicle
Unknown
Launch site
Air Force Eastern Test Range (AFETR)
Object type
Payload
Rocket body
Debris
Shape & HBR
Unknown shape, 0.1 m
Radar Cross Section
Small (<0.1 m²)

Expand to show TLE details & history
Last TLE update: 7 hours ago

TLE from 7 hours ago
0 THOR ABLESTAR DEB
1   357U 61015DX  26036.44357140  .00001512  00000-0  91219-3 0  9997
2   357  66.8063 217.8490 0016589 287.2457  72.6815 14.09297746277296
Epoch: 2026-02-05T10:38Z
TLE epoch observation values (Epoch: 2026-02-05T10:38:44.568Z)
Latitude
-0.0001°
Longitude
-77.43247°
Altitude
860.313 km
Speed
7.425 km/s
True Right ascension
14h 31m 23s
True Declination
0° 00' 00"
Sunlit
Object was in daylight at epoch
Visualization orbit readout
Latitude
Unknown
Longitude
Unknown
Altitude
Unknown
Speed
Unknown
Apparent Right ascension
Unknown
Apparent Declination
Unknown
Sunlit
N/A
Visualization observer readout
Local Sidereal Time
20:00:59
Azimuth
Unknown
Elevation
Unknown
Doppler factor
Unknown
Orbital elements
Apogee altitude
872.162 km
Perigee altitude
848.147 km
Semi-major axis
7,238.291 km
Eccentricity
0.00166
Inclination
66.8063°
RAAN
217.849°
Arg. of periapsis
287.2457°
True anomaly
72.86309°
Mean anomaly
72.6815°
Eccentric anomaly
72.77228°
Mean motion
3.52443 °/min
Orbital period
102.14 mins
BSTAR
0.00091219
Loading maneuver chart data...
Computing Atmospheric mass density...

Documentation

Showing up to 5 results
|